Погода в Зарайском

Россия / Ивановская область     56°58′45″N   42°56′30″E
темп.,
°C
ветер,
м/с
пор.,
м/с
влажн.,
%
обл.,
%
осадки,
мм/ч
давл.,
гПа
погр.,
м
20 апреля, вт
вт2000:000в5127337 0.0 1029277
03:00−1в512695 0.0 1029293
06:00−1в5127652 0.0 1029318
09:00+3вюв610645 0.0 1029458
12:00+7вюв7105447 0.0 10271015
15:00+8вюв7115073 0.0 10251350
18:00+6вюв61254100 0.0 1023427
21:00+4в71559100 0.0 1022403
21 апреля, ср
ср2100:00+4вюв81659100 0.0 1019534
03:00+3вюв101764100 0.3 1016789
06:00+1вюв112098100 4.7 1012845
09:00+2юв112092100 5.9 1011755
12:00+4юв101891100 0.3 1009782
15:00+4юв101893100 1.2 1008768
18:00+5юв91693100 1.3 1008736
21:00+4ююз4993100 2.8 1011427
22 апреля, чт
чт2200:00+3ююз51090100 0.1 1012489
03:00+3ююз51092100 0.1 1013519
06:00+4ю5994100 0.0 1015483
09:00+6ююз688191 0.1 1016802
12:00+7юз467299 0.1 1017995
15:00+8ююз567075 0.3 10171073
18:00+7ююз467632 0.0 1019509
21:00+5ююв358593 0.0 101996
23 апреля, пт
пт2300:00+4ю389162 0.0 1019122
03:00+3ююв379251 0.0 1020110
06:00+3ююв379318 0.0 1020144
09:00+8ююв5878100 0.0 1020372
12:00+11ююв577044 0.1 1019872
15:00+13ююв56626 0.8 10181158
18:00+11ююв487898 2.0 1018189
21:00+8ююв3789100 4.6 1018128
24 апреля, сб
сб2400:00+7ююв379068 0.8 1017105
03:00+5юв479421 0.8 1016102
06:00+6юв499426 0.0 1015154
09:00+10юв712805 0.0 1014463
12:00+12юв710675 0.1 10121037
15:00+13юв796115 0.6 10111099
18:00+10юв7147630 0.4 1009489
21:00+8юв7157993 0.5 1009529